Torna al catalogo

STARLINK-32693

AttivoComunicazioniVLEO
NORAD 62437·PAYLOAD·🇺🇸 United States

Lanciato Dec 29, 2024 da Vandenberg Space Force Base

Loading…

Prossimi Passaggi (prossime 24 ore)

TLE

AggiornatoSource: CelesTrak SupGP

Epoca: Sep 15, 2026, 02:23 UTC

1 62437C 24251F   26258.09979167 -.00064697  00000+0 -19115-2 0  2587
2 62437  53.1577 170.6451 0001299  91.1155 338.5185 15.34423237    17

Traccia STARLINK-32693 in tempo reale con AllMySat

Download on the App Store